STARLINK-30079, 56706

Orbit data source: Space-Track

STARLINK-30079, 56706 is a payload satellite owned by SpaceX/Seattle (US) in LEO that was launched on Fri, 19 May 2023 UTC via an FALCON 9 launch vehicle from the Air Force Eastern Test Range (AFETR). Payload-class satellites include a variety of spacecraft equipped with specific instruments for various scientific and technological missions. These include communications satellites like Starlink; space stations such as the ISS; scientific satellites like the Hubble; Earth observation satellites from companies like Planet Labs, Umbra, and HawkEye 360; GPS; miniature CubeSats for education and research; and military/defense satellites.

Loading next visibility...
Identifier
56706, 2023-067U
Orbit
LEO
Country
Flag of USUS
Related business
Manufacturer
SpaceX/Seattle
Mission
Operational Commercial Communications
Bus & Motor
STARLINK V2M, Unknown motor
Mass
730 kg wet, ~700 kg dry
Launch date (UTC)
2023-05-19 (3 years ago)
Launch vehicle
FALCON 9
Launch site
Air Force Eastern Test Range (AFETR)
Object type
Payload
Rocket body
Debris
Shape & HBR
Box + 2 Pan, 17.7 m
Radar Cross Section
33.884 m², Large (>1 m²)

Expand to show TLE details & history
Last TLE update: 2 days ago

TLE from 2 days ago
0 STARLINK-30079
1 56706U 23067U   26171.11577276  .00002595  00000-0  10383-3 0  9994
2 56706  42.9995  62.9336 0000713 309.5500  50.5288 15.27570130171240
Epoch: 2026-06-20T02:46Z
TLE epoch observation values (Epoch: 2026-06-20T02:46:42.766Z)
Latitude
-0.00006°
Longitude
112.92032°
Altitude
482.543 km
Speed
7.626 km/s
True Right ascension
04h 11m 44s
True Declination
0° 00' 00"
Sunlit
Object was in daylight at epoch
Visualization orbit readout
Latitude
Unknown
Longitude
Unknown
Altitude
Unknown
Speed
Unknown
Apparent Right ascension
Unknown
Apparent Declination
Unknown
Sunlit
N/A
Visualization observer readout
Local Sidereal Time
21:28:29
Azimuth
Unknown
Elevation
Unknown
Doppler factor
Unknown
Orbital elements
Apogee altitude
485.513 km
Perigee altitude
484.535 km
Semi-major axis
6,863.161 km
Eccentricity
0.00007
Inclination
42.9995°
RAAN
62.9336°
Arg. of periapsis
309.55°
True anomaly
50.53511°
Mean anomaly
50.5288°
Eccentric anomaly
50.53195°
Mean motion
3.81731 °/min
Orbital period
94.31 mins
BSTAR
0.00010383
Loading maneuver chart data...
Computing Atmospheric mass density...
Loading historical data...
Loading historical data...
Loading historical data...
Loading historical data...
Loading historical data...
Loading historical data...
Loading historical data...

Documentation

Showing up to 5 results
|